La Veta Pass, CO

8:29 PM MST on December 13, 2017 (GMT -0700)
La Veta Pass

Weather History for KVTP - August, 2013

Change the Weather History Date:

Saturday, August 24, 2013

  Actual Average (KTAD) Record (KTAD)
Temperature  
Mean Temperature 58 °F -  
Max Temperature 71 °F 85 °F 97 °F (2011)
Min Temperature 44 °F 56 °F 46 °F (2004)
Degree Days  
Heating Degree Days 8    
Growing Degree Days 8 (Base 50)    
Moisture  
Dew Point 42 °F    
Average Humidity 64    
Maximum Humidity 88    
Minimum Humidity 31    
Precipitation  
Precipitation 0.00 in - - ()
Sea Level Pressure  
Sea Level Pressure 30.49 in    
Wind  
Wind Speed 10 mph (SW)    
Max Wind Speed 17 mph    
Max Gust Speed 34 mph    
Visibility 10 miles    
Events Rain    
Averages and records for this station are not official NWS values.
T = Trace of Precipitation, MM = Missing Value Source: NWS Daily Summary

Daily Weather History Graph

Daily Weather History Graph

Search for Another Location

Airport or City:

Trip Planner

Search our weather history database for the weather conditions in past years. The results will help you decide how hot, cold, wet, or windy it might be!

Date:

Astronomy

Aug. 24, 2013 Rise Set
Actual Time 6:24 AM MDT 7:40 PM MDT
Civil Twilight 5:57 AM MDT 8:07 PM MDT
Nautical Twilight 5:24 AM MDT 8:40 PM MDT
Astronomical Twilight 4:50 AM MDT 9:14 PM MDT
Moon 9:43 PM MDT (8/24) 10:20 AM MDT (8/24)
Length of Visible Light 14h 10m
Length of Day
13h 16m
Waning Gibbous, 84% of the Moon is Illuminated
Aug 24
Waning Gibbous
Aug 28
Last Quarter
Sep 5
New
Sep 12
First Quarter
Sep 19
Full

Hourly Weather History & Observations

Time (MDT) Temp. Windchill Dew Point Humidity Pressure Visibility Wind Dir Wind Speed Gust Speed Precip Events Conditions
12:14 AM 51.8 °F - 42.8 °F 71% 30.46 in 10.0 mi WSW 8.1 mph - N/A   Clear
12:35 AM 51.8 °F - 41.0 °F 67% 30.46 in 10.0 mi West 9.2 mph 16.1 mph N/A   Clear
12:54 AM 50.0 °F - 41.0 °F 71% 30.46 in 10.0 mi West 8.1 mph - N/A   Clear
1:15 AM 50.0 °F - 41.0 °F 71% 30.46 in 10.0 mi SW 10.4 mph 21.9 mph N/A   Clear
1:35 AM 50.0 °F - 41.0 °F 71% 30.45 in 10.0 mi SW 9.2 mph 23.0 mph N/A   Clear
1:55 AM 50.0 °F - 41.0 °F 71% 30.46 in 10.0 mi SW 11.5 mph 21.9 mph N/A   Clear
2:15 AM 50.0 °F - 41.0 °F 71% 30.46 in 10.0 mi SW 10.4 mph 25.3 mph N/A   Clear
2:35 AM 48.2 °F - 41.0 °F 76% 30.46 in 10.0 mi WSW 11.5 mph 20.7 mph N/A   Clear
2:55 AM 48.2 °F - 41.0 °F 76% 30.46 in 10.0 mi SW 10.4 mph 23.0 mph N/A   Clear
3:15 AM 48.2 °F - 41.0 °F 76% 30.46 in 10.0 mi SW 15.0 mph 32.2 mph N/A   Clear
3:34 AM 48.2 °F - 41.0 °F 76% 30.46 in 10.0 mi SW 17.3 mph 26.5 mph N/A   Clear
3:55 AM 48.2 °F - 41.0 °F 76% 30.47 in 10.0 mi WSW 10.4 mph 34.5 mph N/A   Clear
4:14 AM 48.2 °F - 41.0 °F 76% 30.46 in 10.0 mi SW 13.8 mph 24.2 mph N/A   Clear
4:34 AM 46.4 °F 41.1 °F 41.0 °F 81% 30.46 in 10.0 mi SW 11.5 mph 18.4 mph N/A   Clear
4:55 AM 46.4 °F 41.1 °F 41.0 °F 81% 30.46 in 10.0 mi SW 11.5 mph 19.6 mph N/A   Clear
5:14 AM 46.4 °F 40.7 °F 41.0 °F 81% 30.45 in 10.0 mi SW 12.7 mph 19.6 mph N/A   Clear
5:35 AM 46.4 °F 41.1 °F 41.0 °F 81% 30.46 in 10.0 mi SW 11.5 mph 19.6 mph N/A   Clear
5:55 AM 46.4 °F 42.4 °F 41.0 °F 81% 30.46 in 10.0 mi SW 8.1 mph 19.6 mph N/A   Clear
6:15 AM 46.4 °F 42.4 °F 41.0 °F 81% 30.46 in 10.0 mi WSW 8.1 mph 16.1 mph N/A   Clear
6:35 AM 44.6 °F 39.7 °F 41.0 °F 87% 30.46 in 10.0 mi WSW 9.2 mph 16.1 mph N/A   Clear
6:54 AM 44.6 °F 39.2 °F 41.0 °F 87% 30.47 in 10.0 mi WSW 10.4 mph - N/A   Clear
7:15 AM 46.4 °F 41.1 °F 41.0 °F 81% 30.48 in 10.0 mi SW 11.5 mph 21.9 mph N/A   Clear
7:34 AM 46.4 °F 41.1 °F 41.0 °F 81% 30.48 in 10.0 mi SW 11.5 mph 17.3 mph N/A   Clear
7:55 AM 50.0 °F - 42.8 °F 76% 30.48 in 10.0 mi SW 13.8 mph 25.3 mph N/A   Clear
8:15 AM 51.8 °F - 42.8 °F 71% 30.48 in 10.0 mi SW 13.8 mph 24.2 mph N/A   Clear
8:35 AM 53.6 °F - 44.6 °F 72% 30.49 in 10.0 mi SW 15.0 mph 26.5 mph N/A   Clear
8:55 AM 55.4 °F - 44.6 °F 67% 30.49 in 10.0 mi SW 13.8 mph 26.5 mph N/A   Scattered Clouds
9:15 AM 53.6 °F - 42.8 °F 67% 30.49 in 10.0 mi WSW 11.5 mph 24.2 mph N/A   Scattered Clouds
9:34 AM 55.4 °F - 44.6 °F 67% 30.49 in 10.0 mi SW 12.7 mph 20.7 mph N/A   Scattered Clouds
9:54 AM 57.2 °F - 44.6 °F 63% 30.50 in 10.0 mi WSW 10.4 mph 23.0 mph N/A   Scattered Clouds
10:14 AM 59.0 °F - 44.6 °F 59% 30.51 in 10.0 mi SW 11.5 mph 23.0 mph N/A   Scattered Clouds
10:35 AM 59.0 °F - 44.6 °F 59% 30.51 in 10.0 mi WSW 10.4 mph 23.0 mph N/A   Scattered Clouds
10:55 AM 60.8 °F - 44.6 °F 55% 30.52 in 10.0 mi SW 11.5 mph 21.9 mph N/A   Scattered Clouds
11:15 AM 62.6 °F - 44.6 °F 52% 30.52 in 10.0 mi SW 15.0 mph 24.2 mph N/A   Scattered Clouds
11:34 AM 62.6 °F - 42.8 °F 48% 30.52 in 10.0 mi SW 13.8 mph 21.9 mph N/A   Scattered Clouds
11:54 AM 64.4 °F - 44.6 °F 49% 30.52 in 10.0 mi SW 11.5 mph 25.3 mph N/A   Scattered Clouds
12:14 PM 64.4 °F - 42.8 °F 45% 30.52 in 10.0 mi SW 11.5 mph 23.0 mph N/A   Clear
12:35 PM 64.4 °F - 41.0 °F 42% 30.51 in 10.0 mi SW 11.5 mph 21.9 mph N/A   Clear
12:55 PM 64.4 °F - 41.0 °F 42% 30.52 in 10.0 mi SW 12.7 mph 23.0 mph N/A   Scattered Clouds
1:15 PM 66.2 °F - 42.8 °F 43% 30.52 in 10.0 mi SW 12.7 mph 19.6 mph N/A   Scattered Clouds
1:35 PM 68.0 °F - 41.0 °F 37% 30.51 in 10.0 mi SW 9.2 mph 20.7 mph N/A   Clear
1:55 PM 68.0 °F - 41.0 °F 37% 30.51 in 10.0 mi WSW 4.6 mph 18.4 mph N/A   Scattered Clouds
2:14 PM 68.0 °F - 37.4 °F 33% 30.51 in 10.0 mi SW 9.2 mph 20.7 mph N/A   Scattered Clouds
2:33 PM 64.4 °F - 41.0 °F 42% 30.50 in 10.0 mi SW 11.5 mph 19.6 mph N/A   Scattered Clouds
2:55 PM 66.2 °F - 41.0 °F 40% 30.50 in 10.0 mi SW 6.9 mph - N/A   Scattered Clouds
3:15 PM 69.8 °F - 39.2 °F 33% 30.49 in 10.0 mi SW 5.8 mph 16.1 mph N/A   Scattered Clouds
3:34 PM 69.8 °F - 41.0 °F 35% 30.48 in 10.0 mi SW 9.2 mph - N/A   Clear
3:55 PM 71.6 °F - 39.2 °F 31% 30.48 in 10.0 mi SW 5.8 mph - N/A   Clear
4:15 PM 66.2 °F - 37.4 °F 35% 30.48 in 10.0 mi SW 4.6 mph - N/A   Clear
4:34 PM 64.4 °F - 37.4 °F 37% 30.49 in 10.0 mi SW 4.6 mph - N/A   Clear
4:55 PM 64.4 °F - 37.4 °F 37% 30.48 in 10.0 mi SW 5.8 mph - N/A   Scattered Clouds
5:14 PM 64.4 °F - 39.2 °F 40% 30.48 in 10.0 mi SW 8.1 mph - N/A   Mostly Cloudy
5:35 PM 60.8 °F - 42.8 °F 52% 30.49 in 10.0 mi SW 12.7 mph 17.3 mph N/A   Overcast
5:54 PM 53.6 °F - 50.0 °F 88% 30.50 in 4.0 mi SW 9.2 mph 19.6 mph N/A Rain Heavy Rain
6:15 PM 53.6 °F - 50.0 °F 88% 30.49 in 10.0 mi SW 10.4 mph - N/A   Mostly Cloudy
6:35 PM 55.4 °F - 48.2 °F 77% 30.49 in 10.0 mi SW 6.9 mph - N/A   Mostly Cloudy
6:54 PM 57.2 °F - 46.4 °F 67% 30.49 in 10.0 mi SW 10.4 mph 17.3 mph N/A   Mostly Cloudy
7:15 PM 55.4 °F - 44.6 °F 67% 30.49 in 10.0 mi SW 12.7 mph 17.3 mph N/A   Scattered Clouds
7:35 PM 53.6 °F - 44.6 °F 72% 30.49 in 10.0 mi SW 13.8 mph 23.0 mph N/A   Scattered Clouds
7:55 PM 51.8 °F - 42.8 °F 71% 30.49 in 10.0 mi SW 11.5 mph 19.6 mph N/A   Scattered Clouds
8:15 PM 51.8 °F - 41.0 °F 67% 30.50 in 10.0 mi SW 13.8 mph 18.4 mph N/A   Scattered Clouds
8:35 PM 53.6 °F - 42.8 °F 67% 30.51 in 10.0 mi SW 10.4 mph 17.3 mph N/A   Scattered Clouds
8:53 PM 53.6 °F - 42.8 °F 67% 30.52 in 10.0 mi SW 9.2 mph 16.1 mph N/A   Scattered Clouds
9:15 PM 53.6 °F - 42.8 °F 67% 30.52 in 10.0 mi SW 11.5 mph 18.4 mph N/A   Mostly Cloudy
9:34 PM 53.6 °F - 42.8 °F 67% 30.52 in 10.0 mi SW 10.4 mph 17.3 mph N/A   Mostly Cloudy
9:55 PM 53.6 °F - 42.8 °F 67% 30.53 in 10.0 mi WSW 8.1 mph 19.6 mph N/A   Overcast
10:15 PM 51.8 °F - 44.6 °F 76% 30.54 in 10.0 mi WSW 9.2 mph - N/A   Overcast
10:34 PM 51.8 °F - 44.6 °F 76% 30.54 in 10.0 mi SW 10.4 mph 17.3 mph N/A   Overcast
10:55 PM 51.8 °F - 44.6 °F 76% 30.54 in 10.0 mi SW 12.7 mph 25.3 mph N/A   Overcast
11:14 PM 51.8 °F - 44.6 °F 76% 30.54 in 10.0 mi SW 10.4 mph 23.0 mph N/A   Overcast
11:35 PM 50.0 °F - 44.6 °F 82% 30.54 in 10.0 mi WSW 9.2 mph 18.4 mph N/A   Overcast
11:54 PM 50.0 °F - 44.6 °F 82% 30.53 in 10.0 mi SW 12.7 mph 25.3 mph N/A   Overcast